TIANZHOU-5 (54237 NORAD) Tracking and Keplerian Element Data

This shows tracking and keplerian element data for the satellite.

Feedback or suggestion? Click here.




ElementValue
Catalog54237
NameTIANZHOU-5
Epoch Orbit8919
Epoch Day324.39096951
Epoch Year2022
RAAN347.491
Inclination41.4787
Eccentricity0.0005899
Argument of Perigee282.2033
Mean Anonmoly93.0027
Mean Motion15.58758133
Decay Rate0.00019188
L11 54237U 22152A 22324.39096951 .00019188 00000+0 24531-3 0 9992
L22 54237 41.4787 347.4910 0005899 282.2033 93.0027 15.58758133 89197



Live tracking and technical data element details for TIANZHOU-5 (NORAD 54237). TIANZHOU-5 can be tracked NOW for your location showing map with azimuth and elevation plus other details from your city location.







IsCatalogInMostPopularTable: catalog: 54237, numindb: 7
Update: records affected: 1



GetName: 54237 TIANZHOU-5

Hit Count: updated at: Sun, 04 Dec 2022 21:47:36 GMT